This is the latest recevied weather packets stored in our database for station/object VU2EXP-13. If no packets are shown the sender has not sent any weather packets the latest 10 day(s).
| Time | Temp. | Humidity | Pressure | Rain* | Wind** | Luminosity | Snow |
|---|---|---|---|---|---|---|---|
| 1787687636 | 28.33° C | 69% | 991.7 hPa | - | - | - | - |
| 1787686736 | 28.33° C | 69% | 991.7 hPa | - | - | - | - |
| 1787685836 | 28.89° C | 69% | 991.7 hPa | - | - | - | - |
| 1787684935 | 28.89° C | 69% | 991.8 hPa | - | - | - | - |
| 1787684036 | 28.89° C | 68% | 991.9 hPa | - | - | - | - |
| 1787683136 | 28.89° C | 67% | 992 hPa | - | - | - | - |
| 1787682236 | 28.89° C | 67% | 992.2 hPa | - | - | - | - |
| 1787681335 | 28.89° C | 66% | 992.2 hPa | - | - | - | - |
| 1787680435 | 28.89° C | 65% | 992.2 hPa | - | - | - | - |
| 1787679535 | 29.44° C | 65% | 992.2 hPa | - | - | - | - |
| 1787678635 | 29.44° C | 64% | 992.3 hPa | - | - | - | - |
| 1787677749 | 29.44° C | 64% | 987.5 hPa | - | - | - | - |
| 1787637290 | 31.11° C | 59% | 991.9 hPa | - | - | - | - |
| 1787636390 | 31.67° C | 59% | 991.9 hPa | - | - | - | - |
| 1787635490 | 31.67° C | 59% | 991.9 hPa | - | - | - | - |
| 1787634589 | 31.11° C | 60% | 991.9 hPa | - | - | - | - |
| 1787633690 | 31.11° C | 62% | 992 hPa | - | - | - | - |
| 1787632789 | 30° C | 64% | 991.8 hPa | - | - | - | - |
| 1787631889 | 30.56° C | 64% | 992 hPa | - | - | - | - |
| 1787630989 | 30° C | 66% | 991.9 hPa | - | - | - | - |
| 1787630089 | 29.44° C | 68% | 991.8 hPa | - | - | - | - |
| 1787629189 | 28.89° C | 70% | 991.6 hPa | - | - | - | - |
| 1787628289 | 28.89° C | 71% | 991.8 hPa | - | - | - | - |
| 1787627389 | 28.89° C | 71% | 991.7 hPa | - | - | - | - |
| 1787626488 | 28.89° C | 71% | 991.6 hPa | - | - | - | - |
* Rain since midnight (hover to see other rain measurements)
** Current wind speed in m/s (hover to see current wind gust speed)